x

9410230 - La Jolla, Ca (ljac1) Weather Station

4:54am - Thu 17th Aug 2017 All times are PDT. -7 hours from GMT.

  • Wind
    3mph, 5mph gusts
  • Sea Temp 71°f
  • Air Temp 65°f
  • Sea Pressure 1014.4mb
  • 9410230 - La Jolla, Ca
  • 9410230 - La Jolla, Ca

More Historic Weather Station data

Upgrade to MSW Pro to gain access to the past 30 days of data for over 8000 Wavebouys and Weather Stations around the globe.

Join

Comparision Forecast

View Surf forecast
   
Thu 08/17 4:54am 3 5 mph 1014.4mb 71f 65f
4:48am 5 5 mph 1014.4mb 71f 65f
4:42am 3 6 mph 1014.3mb 71f 65f
4:36am 6 6 mph 1014.4mb 71f 65f
4:30am 6 7 mph 1014.3mb 71f 64f
4:24am 6 7 mph 1014.3mb 71f 64f
4:18am 7 7 mph 1014.3mb 71f 65f
4:12am 7 7 mph 1014.4mb 71f 64f
4:06am 7 7 mph 1014.4mb 71f 65f
4:00am 6 7 mph 1014.4mb 71f 64f
3:54am 6 7 mph 1014.4mb 71f 64f
3:48am 6 6 mph 1014.4mb 71f 65f
3:42am 6 6 mph 1014.4mb 71f 65f
3:36am 5 6 mph 1014.4mb 71f 65f
3:30am 5 6 mph 1014.4mb 71f 65f
3:24am 5 5 mph 1014.4mb 71f 65f
3:18am 3 6 mph 1014.3mb 71f 65f
3:12am 6 6 mph 1014.3mb 71f 65f
3:06am 5 6 mph 1014.4mb 71f 65f
3:00am 6 6 mph 1014.4mb 71f 65f
2:54am 5 5 mph 1014.5mb 71f 65f
2:48am 2 3 mph 1014.4mb 71f 65f
2:42am 2 2 mph 1014.4mb 71f 65f
2:36am 1 1 mph 1014.4mb 71f 65f
2:30am  -  1 mph 1014.5mb 71f 65f
2:24am 1 2 mph 1014.5mb 71f 65f
2:18am 2 2 mph 1014.5mb 71f 65f
2:12am 1 2 mph 1014.6mb 71f 65f
2:06am 2 3 mph 1014.6mb 71f 65f
2:00am 3 3 mph 1014.6mb 71f 65f
1:54am 2 2 mph 1014.7mb 71f 65f
1:48am 1 2 mph 1014.6mb 71f 65f
1:42am 1 2 mph 1014.7mb 71f 65f
1:36am 2 2 mph 1014.7mb 71f 65f
1:30am 1 2 mph 1014.7mb 71f 65f
1:24am 2 2 mph 1014.7mb 71f 66f
1:18am 1 1 mph 1014.7mb 71f 66f
1:12am 1 2 mph 1014.7mb 71f 65f
1:06am 1 1 mph 1014.7mb 71f 66f
1:00am 1 2 mph 1014.7mb 71f 66f
12:54am 1 2 mph 1014.7mb 71f 66f
12:48am  -  1 mph 1014.7mb 70f 66f
12:42am 1 2 mph 1014.7mb 70f 66f
12:36am  -  1 mph 1014.8mb 70f 66f
12:30am  -  mph 1014.8mb 69f 66f
12:24am  -  mph 1014.8mb 68f 66f
12:18am  -  mph 1014.7mb 67f 66f
12:12am  -  2 mph 1014.7mb 62f 66f
12:06am 2 3 mph 1014.6mb 62f 66f
12:00am 3 3 mph 1014.6mb 62f 66f
Wed 08/16 11:54pm 2 2 mph 1014.6mb 62f 66f
11:48pm 1 3 mph 1014.6mb 62f 66f
11:42pm 1 2 mph 1014.6mb 62f -
11:36pm 2 2 mph 1014.6mb 62f -
11:30pm 1 2 mph 1014.6mb 62f 66f
11:24pm 2 3 mph 1014.7mb 62f 66f
11:18pm 2 2 mph 1014.7mb 62f 67f
11:12pm 3 3 mph 1014.7mb 62f 66f
11:06pm 2 5 mph 1014.7mb 63f 67f
11:00pm  -  2 mph 1014.6mb 63f 66f
10:54pm 2 3 mph 1014.6mb 63f 67f
10:48pm 2 3 mph 1014.6mb 63f 67f
10:42pm 3 5 mph 1014.6mb 63f 67f
10:36pm 3 5 mph 1014.6mb 64f 67f
10:30pm 3 5 mph 1014.6mb 64f 67f
10:24pm 3 5 mph 1014.6mb 64f 67f
10:18pm 2 5 mph 1014.5mb 64f 67f
10:12pm 5 5 mph 1014.5mb 64f 67f
10:06pm 3 6 mph 1014.5mb 64f 67f
10:00pm 3 6 mph 1014.5mb 64f 67f
9:54pm 5 6 mph 1014.5mb 64f 67f
9:48pm 5 6 mph 1014.4mb 64f 67f
9:42pm 5 6 mph 1014.4mb 65f 67f
9:36pm 5 6 mph 1014.3mb 65f 67f
9:30pm 5 9 mph 1014.3mb 65f 67f
9:24pm 6 8 mph 1014.3mb 65f 67f
9:18pm 5 7 mph 1014.2mb 65f 67f
9:12pm 6 8 mph 1014.2mb 65f 67f
9:06pm 6 8 mph 1014.1mb 66f 67f
9:00pm 6 9 mph 1014.1mb 66f 67f
8:54pm 7 9 mph 1014mb 66f 67f
8:48pm 7 9 mph 1014mb 66f 67f
8:42pm 6 7 mph 1014mb 66f 67f
8:36pm 7 9 mph 1013.9mb 67f 67f
8:30pm 8 10 mph 1013.9mb 67f 67f
8:24pm 7 8 mph 1013.9mb 68f 67f
8:18pm 7 9 mph 1013.9mb 69f 67f
8:12pm 7 9 mph 1013.8mb 69f 67f
8:06pm 7 9 mph 1013.7mb 70f 67f
8:00pm 8 9 mph 1013.7mb 71f 67f
7:54pm 6 7 mph 1013.7mb 72f 67f
7:48pm 7 9 mph 1013.6mb 72f 67f
7:42pm 7 8 mph 1013.6mb 72f 67f
7:36pm 6 8 mph 1013.5mb 72f 67f
7:30pm 8 9 mph 1013.5mb 72f 67f
7:24pm 7 9 mph 1013.5mb 72f 67f
7:18pm 7 9 mph - - -
7:12pm 7 9 mph 1013.4mb 72f 67f
7:06pm 8 10 mph 1013.3mb 72f 67f
7:00pm 9 10 mph 1013.3mb 72f 67f
6:54pm 8 11 mph 1013.3mb 72f 67f
6:48pm 8 10 mph - - -
6:42pm 10 11 mph 1013.2mb 72f 67f
6:36pm 9 10 mph 1013.2mb 72f 67f
6:30pm 10 11 mph 1013.2mb 72f 67f
6:24pm 9 11 mph 1013.2mb 72f 67f
6:18pm 9 11 mph - - -
6:12pm 9 13 mph 1013.2mb 72f 68f
6:06pm 9 11 mph 1013.1mb 72f 68f
6:00pm 10 11 mph 1013.2mb 72f 68f
5:54pm 8 10 mph 1013.2mb 72f 68f
5:48pm 7 9 mph 1013.2mb 72f 69f
5:42pm 8 9 mph 1013.2mb 72f 69f
5:36pm 7 9 mph 1013.2mb 72f 69f
5:30pm 7 10 mph 1013.3mb 72f 68f
5:24pm 8 11 mph 1013.2mb 72f 68f
5:18pm 8 10 mph 1013.2mb 72f 69f
5:12pm 9 11 mph 1013.2mb 72f 68f
5:06pm 8 9 mph 1013.3mb 72f 68f
5:00pm 8 9 mph 1013.3mb 72f 69f
4:54pm 7 9 mph 1013.4mb 71f 69f
4:48pm 7 8 mph - - -
4:42pm 6 9 mph 1013.5mb 71f 69f
4:36pm 7 10 mph 1013.6mb 71f 69f
4:30pm 7 10 mph 1013.6mb 71f 69f
4:24pm 8 9 mph 1013.6mb 71f 69f
4:18pm 8 10 mph 1013.7mb 71f 69f
4:12pm 7 9 mph 1013.7mb 71f 69f
4:06pm 8 9 mph 1013.8mb 71f 70f
4:00pm 7 9 mph 1013.9mb 71f 70f
3:54pm 7 9 mph 1013.9mb 71f 70f
3:48pm 8 9 mph - - -
3:42pm 8 10 mph 1013.9mb 71f 70f
3:36pm 7 10 mph 1013.9mb 71f 70f
3:30pm 8 9 mph 1013.9mb 71f 69f
3:24pm 7 10 mph 1013.9mb 71f 69f
3:18pm 7 9 mph 1013.9mb 71f 70f
3:12pm 8 10 mph 1014mb 71f 70f
3:06pm 7 9 mph 1014mb 72f 70f
3:00pm 7 9 mph 1014mb 71f 70f
2:54pm 8 9 mph 1014mb 71f 70f
2:48pm 8 9 mph - - -
2:42pm 7 9 mph 1014mb 71f 70f
2:36pm 6 9 mph 1014.1mb 71f 70f
2:30pm 6 9 mph 1014.2mb 71f 70f
2:24pm 6 8 mph 1014.3mb 71f 70f
2:18pm 8 9 mph 1014.4mb 71f 69f
2:12pm 8 9 mph 1014.5mb 71f 69f
2:06pm 7 9 mph 1014.6mb 71f 69f
2:00pm 8 10 mph 1014.6mb 71f 69f
1:54pm 8 9 mph 1014.6mb 71f 69f
1:48pm 6 8 mph 1014.6mb 71f 69f
1:42pm 7 9 mph 1014.7mb 71f 69f
1:36pm 7 9 mph 1014.7mb 71f 69f
1:30pm 6 8 mph 1014.8mb 71f 69f
1:24pm 6 8 mph 1014.8mb 71f 70f
1:18pm 7 8 mph 1014.8mb 70f 69f
1:12pm 6 8 mph 1014.8mb 70f 70f
1:06pm 5 7 mph 1014.9mb 70f 70f
1:00pm 5 7 mph 1014.9mb 70f 70f
12:54pm 5 7 mph 1015mb 70f 70f
12:48pm 5 7 mph 1015.1mb 70f 70f
12:42pm 6 7 mph 1015.1mb 70f 70f
12:36pm 6 7 mph 1015.1mb 69f 70f
12:30pm 6 8 mph 1015.1mb 69f 70f
12:24pm 6 7 mph 1015.1mb 69f 69f
12:18pm 6 7 mph 1015.1mb 69f 70f
12:12pm 5 6 mph 1015.2mb 69f 71f
12:06pm 5 7 mph 1015.2mb 69f 71f
12:00pm 6 8 mph 1015.2mb 69f 70f
11:54am 5 8 mph 1015.2mb 68f 70f
11:48am 7 8 mph 1015.3mb 68f 70f
11:42am 5 9 mph 1015.3mb 67f 70f
11:36am 6 9 mph 1015.3mb 67f 69f
11:30am 7 9 mph 1015.3mb 67f 69f
11:24am 7 9 mph 1015.4mb 67f 69f
11:18am 8 10 mph 1015.5mb 67f 69f
11:12am 8 9 mph 1015.5mb 66f 69f
11:06am 7 9 mph 1015.4mb 66f 69f
11:00am 7 8 mph 1015.4mb 66f 69f
10:54am 7 8 mph 1015.4mb 65f 69f
10:48am 6 7 mph 1015.4mb 65f 69f
10:42am 6 7 mph 1015.4mb 64f 69f
10:36am 6 8 mph 1015.3mb 64f 69f
10:30am 6 7 mph 1015.3mb 64f 69f
10:24am 6 7 mph 1015.3mb 63f 68f
10:18am 6 7 mph 1015.2mb 63f 68f
10:12am 6 7 mph 1015.3mb 63f 68f
10:06am 6 7 mph 1015.3mb 62f 69f
10:00am 6 7 mph 1015.2mb 62f 68f
9:54am 6 8 mph 1015.3mb 62f 69f
9:48am 6 7 mph 1015.3mb 62f 69f
9:42am 7 7 mph 1015.3mb 62f 68f
9:36am 5 6 mph 1015.3mb 62f 69f
9:30am 3 5 mph 1015.2mb 62f 69f
9:24am 3 6 mph 1015.2mb 62f 69f
9:18am 5 7 mph 1015.2mb 62f 68f
9:12am 5 6 mph 1015.1mb 62f 68f
9:06am 3 3 mph 1015.1mb 62f 70f
9:00am 1 3 mph 1015.1mb 62f 71f
8:54am 2 3 mph 1015.1mb 62f 70f
8:48am 1 3 mph 1015.2mb 62f 70f
8:42am 3 5 mph 1015.1mb 62f 69f
8:36am 2 2 mph 1015.1mb 62f 71f
8:30am 2 2 mph 1015.1mb 63f 72f
8:24am 1 3 mph 1015.1mb 63f 70f
8:18am 1 3 mph 1015.1mb 63f 70f
8:12am 2 3 mph 1015.1mb 63f 70f
8:06am  -  1 mph 1015mb 64f 71f
8:00am  -  2 mph 1015mb 64f 69f
7:54am 3 3 mph 1014.9mb 64f 68f
7:48am 2 3 mph 1014.8mb 64f 68f
7:42am 2 3 mph 1014.8mb 64f 68f
7:36am 1 3 mph 1014.7mb 65f 68f
7:30am 1 3 mph 1014.7mb 65f 67f
7:24am 2 3 mph 1014.7mb 65f 67f
7:18am 2 5 mph 1014.7mb 66f 67f
7:12am 3 3 mph 1014.6mb 67f 67f
7:06am 2 3 mph 1014.6mb 68f 67f
7:00am 3 5 mph 1014.5mb 68f 67f
6:54am 2 3 mph 1014.5mb 69f 67f
6:48am 3 5 mph 1014.5mb 69f 67f
6:42am 5 6 mph 1014.5mb 69f 67f
6:36am 3 6 mph 1014.5mb 69f 67f
6:30am 3 5 mph 1014.4mb 69f 67f
6:24am 3 6 mph 1014.4mb 69f 67f
6:18am 3 5 mph 1014.4mb 69f 67f
6:12am 2 3 mph 1014.3mb 69f 67f
6:06am 3 5 mph 1014.3mb 69f 67f
6:00am 5 5 mph 1014.2mb 69f 67f
5:42am 3 6 mph 1014mb 69f 67f
5:36am 3 5 mph 1014mb 69f 67f
5:30am 5 5 mph 1014mb 69f 67f
5:24am 3 5 mph 1013.9mb 69f 67f
5:18am 3 5 mph 1013.8mb 69f 67f
5:12am 3 5 mph 1013.7mb 69f 67f
5:06am 5 6 mph 1013.8mb 69f 67f
5:00am 5 6 mph 1013.7mb 69f 67f
4:54am 3 3 mph 1013.7mb 69f 67f
4:48am 3 3 mph 1013.7mb 69f 67f
4:42am 2 3 mph 1013.6mb 69f 67f
4:36am 3 3 mph 1013.6mb 69f 66f
4:30am 3 3 mph 1013.6mb 69f 66f
4:24am 2 2 mph 1013.6mb 69f 66f
4:18am 2 2 mph 1013.6mb 69f 66f
4:12am 1 2 mph 1013.6mb 69f 66f
4:06am 2 2 mph 1013.7mb 69f 66f
4:00am 2 3 mph 1013.7mb 69f 66f
3:54am 2 3 mph 1013.7mb 69f 66f
3:48am 2 2 mph 1013.6mb 69f 66f
3:42am 2 2 mph 1013.6mb 69f 66f
3:36am 2 2 mph 1013.6mb 69f 66f
3:30am  -  1 mph 1013.6mb 69f 66f
3:24am  -  0 mph 1013.6mb 69f 66f
3:18am  -  1 mph 1013.6mb 69f 66f
3:12am  -  1 mph 1013.5mb 69f 66f
3:06am 1 2 mph 1013.5mb 69f 66f
3:00am  -  0 mph 1013.4mb 69f 66f
2:54am  -  0 mph 1013.4mb 69f 66f
2:48am  -  1 mph 1013.4mb 69f 66f
2:42am  -  1 mph 1013.3mb 69f 66f
2:36am  -  2 mph 1013.3mb 69f 66f
2:30am 1 2 mph 1013.3mb 69f 66f
2:24am  -  2 mph 1013.3mb 69f 66f
2:18am  -  3 mph 1013.3mb 69f 66f
2:12am 3 5 mph 1013.3mb 69f 66f
2:06am 3 5 mph 1013.3mb 68f 66f
2:00am 2 6 mph 1013.3mb 68f 66f
1:54am 2 5 mph 1013.3mb 68f 66f
1:48am 2 5 mph 1013.4mb 68f 66f
1:42am 2 3 mph 1013.4mb 68f 66f
1:36am 2 5 mph 1013.4mb 68f 66f
1:30am 3 5 mph 1013.4mb 68f 65f
1:24am 3 5 mph 1013.4mb 68f 65f
1:18am 5 6 mph 1013.5mb 68f 65f
1:12am 3 5 mph 1013.4mb 68f 65f
1:06am 3 5 mph 1013.4mb 68f 65f
1:00am 5 5 mph 1013.5mb 68f 65f
12:54am 3 5 mph 1013.5mb 68f 65f
12:48am 5 6 mph 1013.5mb 68f 65f
12:42am 5 6 mph 1013.4mb 68f 65f
12:36am 5 6 mph 1013.5mb 68f 65f
12:30am 5 7 mph 1013.5mb 68f 65f
12:24am 6 6 mph 1013.6mb 68f 65f
12:18am 5 6 mph 1013.6mb 68f 65f
12:12am 5 6 mph 1013.5mb 68f 65f
12:06am 6 6 mph 1013.5mb 68f 65f
12:00am 5 6 mph 1013.5mb 69f 65f
Tue 08/15 11:54pm 6 6 mph 1013.6mb 69f 65f
11:48pm 6 6 mph 1013.6mb 69f 65f
11:42pm 6 7 mph 1013.6mb 69f 65f
11:36pm 6 7 mph 1013.6mb 68f 64f
11:30pm 6 6 mph 1013.6mb 68f 64f
11:24pm 5 6 mph 1013.6mb 68f 64f
11:18pm 5 6 mph 1013.5mb 67f 64f
11:12pm 3 5 mph 1013.5mb 67f 64f
11:06pm 3 5 mph 1013.5mb 66f 65f
11:00pm 3 3 mph 1013.4mb 66f 65f
10:54pm 2 3 mph 1013.4mb 67f 65f
10:48pm 2 3 mph 1013.4mb 67f 65f
10:42pm 2 3 mph 1013.4mb 67f 65f
10:36pm 2 3 mph 1013.4mb 67f 65f
10:30pm 3 3 mph 1013.4mb 67f 65f
10:24pm 2 3 mph 1013.3mb 68f 65f
10:18pm 3 3 mph 1013.3mb 69f 65f
10:12pm 2 3 mph 1013.3mb 69f 64f
10:06pm 2 3 mph 1013.3mb 69f 64f
10:00pm 2 3 mph 1013.2mb 69f 64f
9:54pm 2 3 mph 1013.2mb 69f 64f
9:48pm 2 3 mph 1013.1mb 69f 65f
9:42pm 2 3 mph 1013.1mb 69f 65f
9:36pm 2 3 mph 1013.1mb 69f 65f
9:30pm 2 3 mph 1013mb 69f 65f
9:24pm 3 5 mph 1013mb 69f 65f
9:18pm 3 5 mph 1012.9mb 69f 65f
9:12pm 2 5 mph 1012.9mb 69f 65f
9:06pm 3 5 mph 1012.9mb 69f 65f
9:00pm 5 5 mph 1012.8mb 69f 65f
8:54pm 3 5 mph 1012.8mb 69f 65f
8:48pm 3 5 mph 1012.7mb 69f 65f
8:42pm 3 6 mph 1012.6mb 69f 65f
8:36pm 3 5 mph 1012.6mb 69f 65f
8:30pm  -  mph 1012.6mb 69f 65f
8:24pm  -  mph 1012.5mb 69f 65f
8:18pm  -  mph 1012.5mb 69f 65f
8:12pm 3 6 mph 1012.4mb 69f 65f
8:06pm 5 7 mph 1012.3mb 69f 65f
8:00pm 7 8 mph 1012.3mb 69f 65f
7:54pm 6 8 mph 1012.2mb 69f 65f
7:48pm 7 9 mph 1012.1mb 69f 65f
7:42pm 5 7 mph 1012.1mb 69f 65f
7:36pm 5 7 mph 1012.1mb 69f 65f
7:30pm 9 10 mph 1012.1mb 69f 65f
7:24pm 3 6 mph 1012.1mb 69f 66f
7:18pm 5 8 mph - - -
7:12pm 2 8 mph 1012mb 69f 66f
7:06pm 7 8 mph 1012mb 69f 65f
7:00pm 3 6 mph 1012mb 69f 66f
6:54pm 2 7 mph 1012mb 69f 66f
6:48pm 6 7 mph 1012mb 69f 66f
6:42pm 3 8 mph 1012mb 69f 66f
6:36pm 6 7 mph 1012mb 69f 66f
6:30pm 2 6 mph 1011.9mb 69f 66f
6:24pm 5 8 mph 1011.9mb 69f 66f
6:18pm 6 7 mph 1012mb 69f 66f
6:12pm 6 7 mph 1012mb 69f 66f
6:06pm 6 7 mph 1012mb 69f 66f
6:00pm 6 7 mph 1012.1mb 69f 66f
5:54pm 6 8 mph 1012.1mb 69f 66f
5:48pm 5 8 mph 1012.2mb 69f 66f
5:42pm 5 6 mph 1012.2mb 69f 66f
5:36pm 6 7 mph 1012.2mb 69f 66f
5:30pm 7 8 mph 1012.3mb 69f 66f
5:24pm 8 9 mph 1012.3mb 69f 66f
5:18pm 6 8 mph 1012.3mb 69f 66f
5:12pm 6 8 mph 1012.4mb 69f 66f
5:06pm 7 9 mph 1012.3mb 69f 66f
5:00pm 6 8 mph 1012.4mb 69f 66f
4:54pm 6 7 mph 1012.4mb 69f 66f
4:48pm 7 9 mph 1012.5mb 69f 66f
4:42pm 7 8 mph 1012.5mb 69f 66f
4:36pm 7 8 mph 1012.5mb 69f 66f
4:30pm 6 8 mph 1012.6mb 69f 66f
4:24pm 6 9 mph 1012.6mb 69f 66f
4:18pm 6 8 mph - - -
4:12pm 8 10 mph 1012.7mb 69f 66f
4:06pm 8 10 mph 1012.7mb 69f 66f
4:00pm 9 10 mph - 69f 66f
3:54pm 5 9 mph - 69f 66f
3:48pm 7 8 mph 1012.7mb - -
3:42pm 6 8 mph 1012.8mb 69f 66f
3:36pm 6 8 mph 1012.8mb 69f 66f
3:30pm 6 9 mph 1012.9mb 69f 67f
3:24pm 6 9 mph 1012.9mb 69f 67f
3:18pm 7 9 mph - - -
3:12pm 6 8 mph 1012.9mb 69f 66f
3:06pm 6 9 mph 1013mb 69f 66f
3:00pm 7 10 mph 1013mb 69f 66f
2:54pm 5 8 mph 1013mb 69f 66f
2:48pm 8 10 mph 1013.1mb - -
2:42pm 7 11 mph 1013.1mb 69f 66f
2:36pm 7 8 mph 1013.1mb 69f 66f
2:30pm 6 9 mph 1013.1mb 69f 66f
2:24pm 6 9 mph 1013.1mb 69f 66f
2:18pm 7 9 mph 1013.2mb 69f 66f
2:12pm 7 9 mph 1013.2mb 69f 66f
2:06pm 8 9 mph 1013.2mb 69f 65f
2:00pm 9 10 mph 1013.2mb 69f 65f
1:54pm 9 10 mph 1013.2mb 69f 65f
1:48pm 10 11 mph 1013.2mb 69f 65f
1:42pm 9 11 mph 1013.2mb 69f 65f
1:36pm 9 11 mph 1013.2mb 69f 65f
1:30pm 10 13 mph 1013.1mb 69f 65f
1:24pm 11 13 mph 1013.2mb 69f 65f
1:18pm 10 13 mph 1013.2mb 69f 65f
1:12pm 11 13 mph 1013.2mb 69f 65f
1:06pm 10 13 mph 1013.2mb 69f 65f
1:00pm 9 11 mph 1013.2mb 69f 66f
12:54pm 8 9 mph 1013.1mb 69f 66f
12:48pm 8 10 mph 1013.2mb 69f 66f
12:42pm 9 11 mph 1013.2mb 68f 66f
12:36pm 7 9 mph 1013.2mb 68f 66f
12:30pm 7 7 mph 1013.3mb 68f 66f
12:24pm 7 8 mph 1013.3mb 68f 66f
12:18pm 8 9 mph 1013.3mb 68f 66f
12:12pm 9 10 mph 1013.3mb 68f 65f
12:06pm 9 10 mph 1013.4mb 68f 65f
12:00pm 9 9 mph 1013.4mb 68f 65f
11:54am 8 9 mph 1013.5mb 68f 65f
11:48am 8 9 mph 1013.5mb 67f 65f
11:42am 8 9 mph 1013.5mb 67f 65f
11:36am 8 9 mph 1013.5mb 67f 65f
11:30am 8 9 mph 1013.5mb 66f 65f
11:24am 8 9 mph 1013.6mb 65f 65f
11:18am 8 9 mph 1013.6mb 64f 66f
11:12am 6 7 mph 1013.6mb 64f 66f
11:06am 2 3 mph 1013.6mb 64f 66f
11:00am 5 5 mph 1013.6mb 64f 65f
10:54am 5 5 mph 1013.5mb 64f 65f
10:48am 3 3 mph 1013.5mb 64f 66f
10:42am 2 3 mph 1013.5mb 65f 66f
10:36am 3 3 mph 1013.5mb 65f 66f
10:30am 2 3 mph 1013.5mb 65f 66f
10:24am 3 3 mph 1013.4mb 65f 66f
10:18am 2 3 mph 1013.4mb 65f 66f
10:12am 1 3 mph 1013.4mb 65f 66f
10:06am 2 5 mph 1013.3mb 65f 66f
10:00am 2 3 mph 1013.2mb 65f 66f
9:54am  -  2 mph 1013.2mb 65f 66f
9:48am 1 2 mph 1013.2mb 65f 66f
9:42am 2 3 mph 1013.1mb 65f 65f
9:36am 2 3 mph 1013.1mb 65f 65f
9:30am 3 3 mph 1013.1mb 65f 65f
9:24am 2 3 mph 1013.1mb 65f 65f
9:18am 2 3 mph 1013mb 65f 65f
9:12am 3 3 mph 1013.1mb - 65f
9:06am 2 3 mph 1013.1mb - 65f
9:00am 2 3 mph 1013.1mb 66f 65f
8:54am 2 3 mph 1013mb 66f 65f
8:48am 3 3 mph 1013mb 65f 65f
8:42am 3 5 mph 1013mb 65f 65f
8:36am 5 6 mph 1013mb 66f 65f
8:30am 3 6 mph 1012.9mb 66f 65f
8:24am 3 6 mph 1012.9mb 66f 65f
8:18am 2 3 mph 1012.9mb 66f 65f
8:12am 3 5 mph 1012.9mb 66f 65f
8:06am 3 5 mph 1012.7mb 66f 65f
8:00am 3 5 mph 1012.7mb 65f 65f
7:54am 3 6 mph 1012.7mb 65f 66f
7:48am 5 6 mph 1012.6mb 65f 66f
7:42am 5 6 mph 1012.6mb 65f 66f
7:36am 6 8 mph 1012.6mb 65f 66f
7:30am 6 7 mph 1012.5mb 65f 66f
7:24am 5 7 mph 1012.5mb 64f 66f
7:18am 6 7 mph 1012.5mb 64f 66f
7:12am 3 5 mph 1012.5mb 64f 66f
7:06am 3 5 mph 1012.5mb 64f 66f
7:00am 3 6 mph 1012.4mb 64f 66f
6:54am 5 6 mph 1012.4mb 64f 66f
6:48am 6 7 mph 1012.3mb 65f 66f
6:42am 6 7 mph 1012.2mb 65f 66f
6:36am 6 8 mph 1012.2mb 66f 66f
6:30am 6 8 mph 1012.1mb 66f 66f
6:24am 7 8 mph 1012mb 67f 66f
6:18am 7 9 mph 1011.9mb 69f 66f
6:12am 7 8 mph 1011.8mb 69f 67f
6:06am 6 8 mph 1011.8mb 69f 67f
6:00am 2 5 mph 1011.8mb 69f 67f
5:54am 2 5 mph 1011.8mb 69f 67f
5:48am 5 6 mph 1011.7mb 68f 67f
5:42am 3 6 mph 1011.6mb 68f 67f
5:36am 5 8 mph 1011.6mb 68f 67f
5:30am 6 7 mph 1011.5mb 68f 67f
5:24am 6 7 mph 1011.6mb 68f 67f
5:18am 2 6 mph 1011.5mb 68f 67f
5:12am 5 6 mph 1011.5mb 68f 67f
5:06am 3 5 mph 1011.5mb 68f 67f
5:00am 3 6 mph 1011.5mb 68f 67f
4:54am 3 6 mph 1011.5mb 68f 67f
4:48am 5 6 mph 1011.5mb 68f 67f
4:42am 5 6 mph 1011.5mb 68f 67f
4:36am 5 6 mph 1011.6mb 68f 67f
4:30am 5 6 mph 1011.7mb 68f 67f
4:24am 3 6 mph 1011.6mb 69f 67f
4:18am 5 7 mph 1011.6mb 69f 67f
4:12am 6 7 mph 1011.7mb 69f 66f
4:06am 6 7 mph 1011.7mb 69f 66f
4:00am 6 7 mph 1011.7mb 69f 66f
3:54am 3 7 mph 1011.7mb 69f 66f
3:48am 6 8 mph 1011.6mb 69f 66f
3:42am 6 7 mph 1011.7mb 69f 66f
3:36am 5 6 mph 1011.7mb 69f 66f
3:30am 5 6 mph 1011.7mb 69f 66f
3:24am 6 7 mph 1011.7mb 69f 66f
3:18am 6 7 mph 1011.8mb 68f 66f
3:12am 5 6 mph 1011.8mb 68f 66f
3:06am 3 5 mph 1011.8mb 68f 66f
3:00am 5 6 mph 1011.8mb 68f 66f
2:54am 3 6 mph 1011.8mb 68f 66f
2:48am 3 6 mph 1011.9mb 68f 66f
2:42am 5 6 mph 1011.8mb 68f 66f
2:36am 3 6 mph 1011.8mb 68f 66f
2:30am 5 6 mph 1011.7mb 68f 66f
2:24am 2 5 mph 1011.6mb 67f 66f
2:18am 5 6 mph 1011.7mb 67f 66f
2:12am 5 6 mph 1011.8mb 67f 66f
2:06am 3 5 mph 1011.8mb 67f 66f
2:00am 2 5 mph 1011.8mb 67f 66f
1:54am 3 5 mph 1011.8mb 67f 66f
1:48am 3 6 mph 1011.9mb 66f 66f
1:42am 5 6 mph 1011.9mb 66f 66f
1:36am 3 5 mph 1011.9mb 65f 66f
1:30am 3 5 mph 1011.9mb 65f 66f
1:24am 2 5 mph 1012mb 64f 66f
1:18am 3 5 mph 1012mb 63f 66f
1:12am 2 3 mph 1011.9mb 62f 66f
1:06am 2 2 mph 1011.9mb 62f 66f
1:00am  -  2 mph 1012.1mb 62f 66f
12:54am  -  2 mph 1012.1mb 62f 66f
12:48am 1 2 mph 1012.1mb 62f 66f
12:42am 1 3 mph 1012.1mb 62f 66f
12:36am 2 3 mph 1012.1mb 62f 66f
12:30am 3 5 mph 1012.2mb 63f 66f
12:24am 6 7 mph 1012.2mb 63f 66f
12:18am 2 6 mph 1012.3mb 64f 66f
12:12am 6 8 mph 1012.2mb 65f 66f
12:06am 8 9 mph 1012.3mb 67f 66f
12:00am 3 5 mph 1012.3mb 68f 66f
Mon 08/14 11:54pm 2 2 mph 1012.3mb 68f 66f
11:48pm 1 3 mph 1012.4mb 68f 66f
11:42pm 3 6 mph 1012.4mb 68f -
11:36pm 5 8 mph 1012.4mb 68f -
11:30pm 5 6 mph 1012.5mb 69f 66f
11:24pm 2 6 mph 1012.3mb 69f 66f
11:18pm 6 7 mph 1012.3mb 69f 66f
11:12pm 6 10 mph 1012.1mb 69f 66f
11:06pm 8 10 mph 1012.1mb 69f 66f
11:00pm 6 8 mph 1012.1mb 69f 66f
10:54pm 6 6 mph 1012.2mb 69f 66f
10:48pm 5 6 mph 1012.2mb 69f 65f
10:42pm 5 6 mph 1012.2mb 69f 65f
10:36pm 5 6 mph 1012.3mb 69f 65f
10:30pm 3 7 mph 1012.3mb 69f 65f
10:24pm 5 6 mph 1012.3mb 69f 65f
10:18pm 3 5 mph 1012.3mb 69f 65f
10:12pm 3 7 mph 1012.3mb 69f 65f
10:06pm 5 7 mph 1012.2mb 69f 65f
10:00pm 6 8 mph 1012.2mb 69f 65f
9:54pm 7 9 mph 1012.2mb 69f 65f
9:48pm 7 8 mph 1012.1mb 69f 65f
9:42pm 7 8 mph 1012mb 69f 66f
9:36pm 6 8 mph 1012mb 69f 66f
9:30pm 7 8 mph 1012mb 69f 66f
9:24pm 6 8 mph 1011.9mb 69f 66f
9:18pm 3 6 mph 1011.8mb 69f 66f
9:12pm 5 6 mph 1011.8mb 69f 66f
9:06pm 2 6 mph 1011.7mb 69f 66f
9:00pm 5 6 mph 1011.7mb 69f 66f
8:54pm 3 7 mph 1011.6mb 69f 66f
8:48pm 5 6 mph - - -
8:42pm 2 6 mph 1011.6mb 69f 66f
8:36pm 2 5 mph 1011.5mb 69f 66f
8:30pm 3 5 mph 1011.4mb 69f 66f
8:24pm 2 2 mph 1011.5mb 69f 66f
8:18pm 2 7 mph 1011.5mb 69f 66f
8:12pm 5 7 mph 1011.5mb 69f 66f
8:06pm 2 5 mph 1011.5mb 69f 66f
8:00pm 5 7 mph 1011.5mb 69f 66f
7:54pm 6 7 mph 1011.5mb 69f 66f
7:48pm 5 6 mph 1011.4mb 69f 66f
7:42pm 6 8 mph 1011.4mb 69f 66f
7:36pm 6 7 mph 1011.4mb 69f 66f
7:30pm 3 6 mph 1011.5mb 69f 66f
7:24pm 5 7 mph 1011.4mb 69f 66f
7:18pm 3 7 mph - - -
7:12pm 5 7 mph 1011.3mb 69f 66f
7:06pm 5 8 mph 1011.4mb 69f 66f
7:00pm 8 9 mph 1011.4mb 69f 66f
6:54pm 7 8 mph 1011.5mb 69f 66f
6:48pm 3 3 mph - - -
6:42pm 3 6 mph 1011.3mb 69f 66f
6:36pm 5 9 mph 1011.3mb 69f 66f
6:30pm 8 9 mph 1011.3mb 69f 66f
6:24pm 7 10 mph 1011.2mb 69f 66f
6:18pm 7 8 mph 1011.3mb 69f 66f
6:12pm 8 9 mph 1011.2mb 69f 67f
6:06pm 5 9 mph 1011.1mb 70f 67f
6:00pm 8 10 mph 1011.2mb 70f 67f
5:54pm 7 8 mph 1011.1mb 70f 67f
5:48pm 7 8 mph 1011.2mb 70f 67f
4:54pm 7 10 mph 1011.5mb 71f 67f
4:48pm 9 11 mph 1011.5mb - -
4:42pm 7 9 mph 1011.5mb 71f 67f
4:36pm 7 11 mph 1011.5mb 71f 67f
4:30pm 8 10 mph 1011.5mb 71f 67f
4:24pm 10 11 mph 1011.5mb 71f 67f
4:18pm 7 10 mph - - -
4:12pm 9 10 mph 1011.6mb 71f 67f
4:06pm 9 11 mph 1011.6mb 71f 67f
4:00pm 10 11 mph 1011.6mb 71f 67f
3:54pm 10 11 mph 1011.7mb 71f 67f
3:48pm 10 13 mph 1011.7mb - -
3:42pm 9 14 mph 1011.7mb 71f 67f
3:36pm 10 13 mph 1011.6mb 71f 67f
3:30pm 11 14 mph 1011.7mb 70f 67f
3:24pm 13 14 mph 1011.7mb 70f 67f
3:18pm 13 14 mph 1011.8mb 70f 67f
3:12pm 11 14 mph 1011.8mb 70f 67f
3:06pm 10 13 mph 1011.9mb 70f 67f
3:00pm 11 14 mph 1011.9mb 70f 67f
2:54pm 11 14 mph 1012mb 70f 67f
2:48pm 11 14 mph - - -
2:42pm 11 14 mph 1012.1mb 70f 67f
2:36pm 13 14 mph 1012.1mb 70f 67f
2:30pm 13 15 mph 1012.2mb 70f 67f
2:24pm 13 14 mph 1012.2mb 69f 67f
2:18pm 13 14 mph 1012.1mb 69f 67f
2:12pm 13 14 mph 1012.1mb 69f 67f
2:06pm 11 13 mph 1012.1mb 68f 67f
2:00pm 11 13 mph 1012.1mb 68f 67f
1:54pm 10 11 mph 1012.1mb 68f 67f
1:48pm 11 13 mph 1012.2mb 68f 67f
1:42pm 9 9 mph 1012.2mb 69f 67f
1:36pm 8 9 mph 1012.3mb 69f 68f
1:30pm 8 9 mph 1012.4mb 69f 67f
1:24pm 8 9 mph 1012.5mb 68f 68f
1:18pm 9 10 mph 1012.5mb 68f 67f
1:12pm 9 10 mph 1012.6mb 67f 67f
1:06pm 9 10 mph 1012.6mb 65f 67f
1:00pm 9 9 mph 1012.5mb 64f 68f
12:54pm 8 10 mph 1012.5mb 63f 68f
12:48pm 9 10 mph 1012.6mb 63f 68f
12:42pm 9 10 mph 1012.7mb 64f 68f
12:36pm 9 10 mph 1012.7mb 65f 68f
12:30pm 7 9 mph 1012.7mb 66f 68f
12:24pm 6 7 mph 1012.7mb 66f 68f
12:18pm 5 7 mph 1012.8mb 64f 69f
12:12pm 5 6 mph 1012.8mb 62f 68f
12:06pm 6 7 mph 1012.9mb 63f 68f
12:00pm 6 6 mph 1012.9mb 63f 68f
11:54am 5 7 mph 1013mb 63f 68f
11:48am 5 7 mph 1013.1mb 62f 68f
11:42am 6 6 mph 1013.1mb 62f 68f
11:36am 5 6 mph 1013.1mb 63f 68f
11:30am 5 6 mph 1013.1mb 62f 68f
11:24am 5 7 mph 1013.2mb 62f 68f
11:18am 6 7 mph 1013.2mb 62f 68f
11:12am 6 7 mph 1013.3mb 62f 68f
11:06am 6 7 mph 1013.3mb 62f 67f
11:00am 6 8 mph 1013.3mb 62f 67f
10:54am 7 8 mph 1013.4mb 62f 67f
10:48am 7 9 mph 1013.3mb 62f 67f
10:42am 8 9 mph 1013.3mb 62f 67f
10:36am 8 9 mph 1013.3mb 62f 67f
10:30am 8 9 mph 1013.3mb 62f 67f
10:24am 8 9 mph 1013.3mb 63f 67f
10:18am 7 10 mph 1013.4mb 63f 67f
10:12am 8 9 mph 1013.4mb 63f 67f
10:06am 8 9 mph 1013.4mb 64f 67f
10:00am 9 10 mph 1013.4mb 64f 67f
9:54am 9 10 mph 1013.3mb 64f 67f
9:48am 9 10 mph 1013.2mb 65f 67f
9:42am 8 10 mph 1013.1mb 65f 67f
9:36am 7 10 mph 1013mb 66f 67f
9:30am 8 10 mph 1013mb 67f 67f
9:24am 9 11 mph 1012.9mb 67f 67f
9:18am 9 11 mph 1013mb 68f 67f
9:12am 9 11 mph 1013mb 69f 67f
9:06am 8 10 mph 1012.9mb 68f 67f
9:00am 8 10 mph 1012.8mb 68f 67f
8:54am 9 10 mph 1012.8mb 67f 67f
8:48am 8 9 mph 1012.8mb 67f 67f
8:42am  -  mph 1012.8mb 67f 67f
8:36am  -  mph 1012.8mb 67f 67f
8:30am 7 9 mph 1012.8mb 66f 66f
8:24am 7 8 mph 1012.8mb 66f 67f
8:18am 6 8 mph 1012.6mb 65f 67f
8:12am 6 8 mph 1012.7mb 66f 67f
8:06am 6 8 mph 1012.7mb 66f 67f
8:00am 6 8 mph 1012.7mb 65f 67f
7:54am 5 6 mph 1012.6mb 65f 67f
7:48am 5 7 mph 1012.5mb 65f 67f
7:42am 6 7 mph 1012.5mb 65f 66f
7:36am 6 7 mph 1012.5mb 65f 66f
7:30am 6 7 mph 1012.5mb 65f 66f
7:24am 6 7 mph 1012.5mb 65f 66f
7:18am 6 7 mph 1012.5mb 66f 66f
7:12am 6 6 mph 1012.4mb 66f 66f
7:06am 6 9 mph 1012.4mb 66f 66f
7:00am 7 9 mph 1012.4mb 66f 66f
6:54am 3 7 mph 1012.4mb 66f 66f
6:48am 6 6 mph 1012.4mb 66f 66f
6:42am 6 7 mph 1012.3mb 66f 66f
6:36am 6 7 mph 1012.3mb 66f 66f
6:30am 3 6 mph 1012.3mb 67f 66f
6:24am 5 6 mph 1012.2mb 67f 66f
6:18am 1 7 mph 1012.1mb 67f 66f
6:12am 3 6 mph 1012.2mb 68f 66f
6:06am 3 6 mph 1012.2mb 69f 66f
6:00am 3 6 mph 1012.2mb 69f 66f
5:54am 5 7 mph 1012.1mb 69f 66f
5:48am 6 7 mph 1012.2mb 69f 66f
5:42am 3 7 mph 1012.2mb 68f 66f
5:36am 7 7 mph 1012.1mb 67f 65f
5:30am 5 6 mph 1012.1mb 67f 66f
5:24am 5 7 mph 1012.1mb 66f 65f
5:18am 5 7 mph 1012.2mb 66f 66f
5:12am 5 7 mph 1012.1mb 66f 65f
5:06am 6 7 mph 1012.2mb 66f 65f
5:00am 2 6 mph 1012.1mb 66f 65f
4:54am 3 7 mph 1012.1mb 66f 66f
4:48am 3 6 mph 1012.2mb 67f 66f
4:42am 6 8 mph 1012.2mb 68f 65f
4:36am 8 10 mph 1012.2mb 69f 65f
4:30am 5 7 mph 1012.2mb 70f 66f
4:24am 5 6 mph 1012.3mb 70f 66f
4:18am 5 8 mph 1012.3mb 70f 66f
4:12am 7 9 mph 1012.3mb 70f 66f
4:06am 6 8 mph 1012.3mb 70f 66f
4:00am 6 8 mph 1012.3mb 69f 66f
3:54am 6 8 mph 1012.3mb 69f 66f
3:48am 6 8 mph 1012.3mb 69f 66f
3:42am 8 9 mph 1012.3mb 69f 66f
3:36am 6 8 mph 1012.3mb 69f 66f
3:30am 2 5 mph 1012.4mb 69f 66f
3:24am 5 6 mph 1012.4mb 68f 66f
3:18am 6 8 mph 1012.4mb 68f 66f
3:12am 6 8 mph 1012.4mb 68f 66f
3:06am 7 10 mph 1012.4mb 68f 66f
3:00am 8 8 mph 1012.4mb 68f 66f
2:54am 2 6 mph 1012.4mb 67f 66f
2:48am  -  3 mph 1012.3mb 67f 66f
2:42am 3 5 mph 1012.3mb 67f 66f
2:36am 2 7 mph 1012.4mb 67f 66f
2:30am 5 7 mph 1012.5mb 67f 66f
2:24am 6 7 mph 1012.5mb 67f 66f
2:18am 5 9 mph 1012.5mb 67f 66f
2:12am 7 10 mph 1012.5mb 66f 66f
2:06am 10 11 mph 1012.5mb 66f 66f
2:00am 8 10 mph 1012.4mb 65f 66f
1:54am 9 9 mph 1012.5mb 65f 66f
1:48am 6 8 mph 1012.5mb 64f 66f
1:42am 5 7 mph 1012.5mb 65f 67f
1:36am 6 8 mph 1012.5mb 65f 67f
1:30am 6 7 mph 1012.6mb 65f 67f
1:24am 5 8 mph 1012.6mb 65f 67f
1:18am 5 9 mph 1012.6mb 66f 67f
1:12am 6 7 mph 1012.6mb 68f 67f
1:06am 3 5 mph 1012.7mb 68f 67f
1:00am 1 2 mph 1012.7mb 69f 67f
12:54am 2 3 mph 1012.7mb 69f 67f
12:48am 1 6 mph 1012.8mb 69f 67f
12:42am 6 8 mph 1012.8mb 70f 67f
12:36am 6 7 mph 1012.8mb 70f 67f
12:30am 5 7 mph 1012.8mb 69f 67f
12:24am 5 6 mph 1012.8mb 70f 67f
12:18am 5 9 mph 1012.8mb 70f 67f
12:12am 9 11 mph 1012.9mb 70f 67f
12:06am 6 11 mph 1012.8mb 71f 67f
12:00am 8 10 mph 1012.8mb 71f 67f
Sun 08/13 11:54pm 8 9 mph 1012.8mb 71f 67f
11:48pm 5 7 mph 1012.9mb 72f 67f
11:42pm 6 7 mph 1012.9mb 71f -
11:36pm 6 7 mph 1012.9mb 71f -
11:30pm 6 7 mph 1012.8mb 71f 66f
11:24pm 6 7 mph 1012.8mb 71f 66f
11:18pm 6 7 mph 1012.8mb 71f 66f
11:12pm 6 7 mph 1012.9mb 71f 66f
11:06pm 7 8 mph 1012.9mb 70f 66f
11:00pm 7 7 mph 1012.8mb 69f 66f
10:54pm 7 8 mph 1012.8mb 70f 66f
10:48pm 6 7 mph 1012.8mb 68f 66f
10:42pm 6 7 mph 1012.7mb 68f 66f
10:36pm 5 6 mph 1012.7mb 68f 67f
10:30pm 5 6 mph 1012.8mb 68f 66f
10:24pm 6 6 mph 1012.9mb 68f 66f
10:18pm 5 6 mph 1012.9mb 68f 67f
10:12pm 5 6 mph 1012.8mb 68f 67f
10:06pm 3 7 mph 1012.8mb 68f 67f
10:00pm 3 5 mph 1012.8mb 68f 67f
9:54pm 3 6 mph 1012.7mb 68f 67f
9:48pm 3 5 mph 1012.7mb 68f 67f
9:42pm 3 5 mph 1012.7mb 69f 67f
9:36pm 3 5 mph 1012.6mb 70f 67f
9:30pm 3 6 mph 1012.6mb 70f 67f
9:24pm 6 6 mph 1012.5mb 70f 67f
9:18pm 5 6 mph 1012.5mb 71f 67f
9:12pm 5 6 mph 1012.5mb 71f 67f
9:06pm 5 6 mph 1012.5mb 71f 67f
9:00pm 5 7 mph 1012.4mb 71f 67f
8:54pm 3 6 mph 1012.4mb 71f 67f
8:48pm 3 5 mph 1012.2mb 71f 67f
8:42pm 3 6 mph 1012.2mb 71f 67f
8:36pm 5 6 mph 1012.1mb 71f 67f
8:30pm 5 6 mph 1012.1mb 70f 67f
8:24pm 5 6 mph 1012mb 70f 67f
8:18pm 2 5 mph 1011.9mb 70f 67f
8:12pm 2 6 mph 1011.9mb 69f 67f
8:06pm 5 6 mph 1011.9mb 69f 67f
8:00pm 5 7 mph 1011.9mb 68f 67f
7:54pm 5 5 mph 1011.9mb 68f 67f
7:48pm 2 5 mph 1011.9mb 68f 67f
7:42pm 6 7 mph 1011.8mb 67f 67f
7:36pm 6 6 mph 1011.8mb 67f 67f
7:30pm 3 7 mph 1011.7mb 67f 67f
7:24pm 2 6 mph 1011.7mb 67f 67f
7:18pm 6 8 mph 1011.7mb 67f 67f
7:12pm 2 6 mph 1011.7mb 67f 68f
7:06pm 2 5 mph 1011.7mb 67f 68f
7:00pm 2 3 mph 1011.7mb 66f 68f
6:54pm 5 7 mph 1011.7mb 67f 68f
6:48pm 3 5 mph 1011.7mb 67f 68f
6:42pm 5 6 mph 1011.7mb 67f 68f
6:36pm 3 6 mph 1011.6mb 68f 68f
6:30pm 2 6 mph 1011.6mb 68f 69f
6:24pm 2 6 mph 1011.6mb 68f 68f
6:18pm 6 6 mph - - -
6:12pm 3 6 mph 1011.6mb 67f 68f
6:06pm 3 7 mph 1011.6mb 67f 68f
6:00pm 5 7 mph 1011.5mb 66f 69f
5:54pm 6 7 mph 1011.5mb 66f 69f
5:48pm 6 7 mph 1011.5mb 66f 69f
5:42pm 6 7 mph 1011.6mb 66f 69f
5:36pm 7 8 mph 1011.6mb 67f 69f
5:30pm 7 9 mph 1011.6mb 67f 69f
5:24pm 6 7 mph 1011.6mb 67f 69f
5:18pm 6 8 mph 1011.7mb 68f 70f
5:12pm 6 8 mph 1011.7mb 69f 70f
5:06pm 6 8 mph 1011.8mb 69f 70f
5:00pm 6 7 mph 1011.8mb 69f 70f
4:54pm 5 6 mph 1011.9mb 69f 71f
4:48pm 6 7 mph 1011.9mb 70f 70f
4:42pm 3 6 mph 1012mb 70f 70f
4:36pm 6 7 mph 1012mb 70f 70f
4:30pm 6 7 mph 1012.1mb 70f 70f
4:24pm 6 7 mph 1012.1mb 69f 70f
4:18pm 5 8 mph - - -
4:12pm 7 8 mph 1012.3mb 69f 70f
4:06pm 7 8 mph 1012.3mb 69f 70f
4:00pm 7 8 mph 1012.3mb 69f 70f
3:54pm 6 8 mph 1012.3mb 68f 70f
3:48pm 6 8 mph 1012.4mb 68f 70f
3:42pm 6 8 mph 1012.4mb 67f 70f
3:36pm 7 9 mph 1012.4mb 67f 70f
3:30pm 7 9 mph 1012.5mb 67f 70f
3:24pm 7 8 mph 1012.5mb 67f 70f
3:18pm 7 8 mph - - -
3:12pm 5 8 mph 1012.5mb 67f 71f
3:06pm 6 8 mph 1012.6mb 66f 71f
3:00pm 6 7 mph 1012.6mb 66f 70f
2:54pm 6 8 mph 1012.7mb 66f 70f
2:48pm 6 7 mph - - -
2:42pm 7 8 mph 1012.7mb 67f 70f
2:36pm 6 8 mph 1012.7mb 67f 70f
2:30pm 6 8 mph 1012.7mb 66f 70f
2:24pm 6 7 mph 1012.7mb 67f 70f
2:18pm 7 8 mph 1012.8mb 67f 70f
2:12pm 6 8 mph 1012.9mb 67f 70f
2:06pm 6 7 mph 1012.9mb 67f 70f
2:00pm 7 8 mph 1013mb 67f 70f
1:54pm 6 7 mph 1012.9mb 66f 70f
1:48pm 6 7 mph 1013mb 65f 70f
1:42pm 7 7 mph 1013.1mb 63f 70f
1:36pm 6 7 mph 1013.1mb 62f 70f
1:30pm 6 7 mph 1013.1mb 61f 70f
1:24pm 6 7 mph 1013.2mb 60f 70f
1:18pm 3 6 mph 1013.2mb 60f 70f
1:12pm 6 6 mph 1013.3mb 59f 70f
1:06pm 6 6 mph 1013.3mb 59f 70f
1:00pm 5 6 mph 1013.4mb 59f 70f
12:54pm 5 6 mph 1013.5mb 59f 70f